TimeMST,TemperatureF,Dew PointF,Humidity,Sea Level PressureIn,VisibilityMPH,Wind Direction,Wind SpeedMPH,Gust SpeedMPH,PrecipitationIn,Events,Conditions,WindDirDegrees,DateUTC
12:53 AM,16.0,10.9,81,30.12,10.0,Calm,Calm,-,N/A,,Clear,0,2013-02-17 07:53:00
1:53 AM,15.1,10.0,80,30.09,10.0,Calm,Calm,-,N/A,,Clear,0,2013-02-17 08:53:00
2:53 AM,14.0,10.0,84,30.06,10.0,Calm,Calm,-,N/A,,Clear,0,2013-02-17 09:53:00
3:53 AM,14.0,10.0,84,30.04,10.0,Calm,Calm,-,N/A,,Clear,0,2013-02-17 10:53:00
4:53 AM,12.0,8.1,84,30.03,10.0,Calm,Calm,-,N/A,,Clear,0,2013-02-17 11:53:00
5:53 AM,12.0,8.1,84,30.06,10.0,Calm,Calm,-,N/A,,Clear,0,2013-02-17 12:53:00
6:53 AM,12.9,8.1,81,30.06,10.0,Calm,Calm,-,N/A,,Clear,0,2013-02-17 13:53:00
7:53 AM,19.0,12.9,77,30.07,10.0,Calm,Calm,-,N/A,,Clear,0,2013-02-17 14:53:00
8:53 AM,25.0,16.0,69,30.05,10.0,Calm,Calm,-,N/A,,Clear,0,2013-02-17 15:53:00
9:53 AM,36.0,16.0,44,29.97,10.0,Calm,Calm,-,N/A,,Clear,0,2013-02-17 16:53:00
10:53 AM,46.0,14.0,28,29.92,10.0,Variable,5.8,-,N/A,,Clear,0,2013-02-17 17:53:00
11:53 AM,51.1,3.0,14,29.86,10.0,WSW,12.7,23.0,N/A,,Clear,250,2013-02-17 18:53:00
12:53 PM,52.0,3.0,14,29.83,10.0,WSW,20.7,27.6,N/A,,Clear,240,2013-02-17 19:53:00
1:53 PM,52.0,3.0,14,29.79,10.0,WSW,17.3,26.5,N/A,,Clear,240,2013-02-17 20:53:00
2:53 PM,52.0,1.0,12,29.78,10.0,West,21.9,28.8,N/A,,Clear,260,2013-02-17 21:53:00
3:53 PM,51.1,3.0,14,29.75,10.0,WSW,20.7,29.9,N/A,,Clear,250,2013-02-17 22:53:00
4:53 PM,50.0,1.0,13,29.76,10.0,WSW,17.3,31.1,N/A,,Clear,250,2013-02-17 23:53:00
5:53 PM,46.0,1.9,16,29.78,10.0,WSW,15.0,25.3,N/A,,Clear,250,2013-02-18 00:53:00
6:53 PM,41.0,7.0,25,29.82,10.0,WSW,9.2,-,N/A,,Clear,250,2013-02-18 01:53:00
7:53 PM,34.0,9.0,35,29.84,10.0,SW,3.5,-,N/A,,Scattered Clouds,230,2013-02-18 02:53:00
8:53 PM,32.0,10.0,40,29.83,10.0,SW,8.1,-,N/A,,Partly Cloudy,220,2013-02-18 03:53:00
9:53 PM,34.0,10.0,37,29.79,10.0,SW,10.4,-,N/A,,Clear,230,2013-02-18 04:53:00
10:53 PM,35.1,9.0,34,29.76,10.0,WSW,11.5,19.6,N/A,,Clear,250,2013-02-18 05:53:00
11:53 PM,32.0,10.9,42,29.77,10.0,WSW,9.2,-,N/A,,Clear,250,2013-02-18 06:53:00